Date String (YYYY-MM-DD hh:mm:ss) UTC,Instrument flags,Ambient pressure (hPa),Sample flow (lpm),Bypass flow (lpm),Sample temperature (°C),Ambient temperature (°C),ASC tube jacket temperature (°C),LED temperature (°C),Box temperature (°C),Sample RH (%),Span deviation,Mass concentration (μg/m³),Mass concentration (μg/m³),Mass concentration (μg/m³)
DateTimeUTC,F1_M11,P_M11,Q1_M11,Q2_M11,T1_M11,T2_M11,T3_M11,T4_M11,T5_M11,U1_M11,ZSPAN_M11,X0_M11,X2_M11,X1_M11
2022-09-20 21:00:00,,0826.5,4.99,0.00,29.7,27.8,00.0,38.3,31.6,11.6,0000.0,0007.66,0002.87,0002.23
2022-09-20 21:01:00,,0826.5,5.00,0.00,29.7,26.6,00.0,38.2,31.5,11.5,0000.0,0007.75,0002.84,0002.21
2022-09-20 21:02:00,,0826.6,4.99,0.00,29.6,26.5,00.0,38.2,31.5,11.6,0000.0,0007.12,0002.89,0002.20
2022-09-20 21:03:00,,0826.5,5.00,0.00,29.6,26.8,00.0,38.2,31.3,11.4,0000.0,0005.61,0002.85,0002.18
2022-09-20 21:04:00,,0826.5,5.00,0.00,29.5,27.1,00.0,38.2,31.2,11.2,0000.0,0006.30,0002.85,0002.16
2022-09-20 21:05:00,,0826.5,5.01,0.00,29.5,27.5,00.0,38.2,31.3,11.4,0000.0,0006.30,0002.85,0002.14
2022-09-20 21:06:00,,0826.5,5.00,0.00,29.6,27.7,00.0,38.2,31.4,11.3,0000.0,0006.33,0002.81,0002.12
2022-09-20 21:07:00,,0826.5,5.00,0.00,29.6,28.0,00.0,38.2,31.4,11.4,0000.0,0006.19,0002.79,0002.11
2022-09-20 21:08:00,,0826.5,5.00,0.00,29.6,28.2,00.0,38.2,31.5,11.6,0000.0,0006.24,0002.79,0002.10
2022-09-20 21:09:00,,0826.5,5.00,0.00,29.7,28.4,00.0,38.2,31.6,11.7,0000.0,0006.30,0002.82,0002.09
2022-09-20 21:10:00,,0826.5,5.00,0.00,29.7,27.9,00.0,38.2,31.6,11.1,0000.0,0007.00,0002.79,0002.09
2022-09-20 21:11:00,,0826.5,5.01,0.00,29.7,26.7,00.0,38.2,31.5,11.5,0000.0,0007.11,0002.80,0002.08
2022-09-20 21:12:00,,0826.5,5.01,0.00,29.6,26.6,00.0,38.2,31.5,11.0,0000.0,0007.63,0002.80,0002.07
2022-09-20 21:13:00,,0826.5,5.01,0.00,29.6,26.8,00.0,38.1,31.4,11.2,0000.0,0008.04,0002.74,0002.04
2022-09-20 21:14:00,,0826.5,5.01,0.00,29.5,27.1,00.0,38.1,31.2,11.7,0000.0,0008.10,0002.74,0002.04
2022-09-20 21:15:00,,0826.5,4.99,0.00,29.5,27.4,00.0,38.1,31.3,11.5,0000.0,0007.66,0002.73,0002.03
2022-09-20 21:16:00,,0826.5,5.01,0.00,29.5,27.7,00.0,38.1,31.3,11.5,0000.0,0007.66,0002.78,0002.04
2022-09-20 21:17:00,,0826.5,4.99,0.00,29.6,28.0,00.0,38.2,31.4,11.7,0000.0,0007.73,0002.75,0002.04
2022-09-20 21:18:00,,0826.5,5.01,0.00,29.6,28.2,00.0,38.2,31.5,11.4,0000.0,0007.87,0002.75,0002.04
2022-09-20 21:19:00,,0826.5,4.99,0.00,29.6,28.4,00.0,38.2,31.5,11.4,0000.0,0007.82,0002.74,0002.04
2022-09-20 21:20:00,,0826.5,5.00,0.00,29.7,28.0,00.0,38.2,31.6,11.6,0000.0,0007.75,0002.71,0002.04
2022-09-20 21:21:00,,0826.4,5.00,0.00,29.7,26.9,00.0,38.2,31.5,11.6,0000.0,0007.47,0002.67,0002.03
2022-09-20 21:22:00,,0826.4,5.01,0.00,29.6,26.5,00.0,38.2,31.4,11.8,0000.0,0007.41,0002.64,0002.01
2022-09-20 21:23:00,,0826.4,5.01,0.00,29.6,26.8,00.0,38.1,31.4,11.7,0000.0,0006.59,0002.64,0002.01
2022-09-20 21:24:00,,0826.4,5.01,0.00,29.5,27.0,00.0,38.1,31.2,11.8,0000.0,0005.71,0002.63,0002.02
2022-09-20 21:25:00,,0826.4,4.99,0.00,29.5,27.4,00.0,38.1,31.3,11.4,0000.0,0005.65,0002.65,0002.01
2022-09-20 21:26:00,,0826.4,5.01,0.00,29.5,27.7,00.0,38.1,31.3,10.8,0000.0,0005.84,0002.66,0002.01
2022-09-20 21:27:00,,0826.4,4.98,0.00,29.5,27.9,00.0,38.2,31.4,10.6,0000.0,0005.97,0002.63,0002.01
2022-09-20 21:28:00,,0826.4,5.01,0.00,29.6,28.2,00.0,38.2,31.5,11.1,0000.0,0005.78,0002.63,0002.01
2022-09-20 21:29:00,,0826.5,5.00,0.00,29.6,28.3,00.0,38.2,31.5,11.2,0000.0,0005.96,0002.64,0002.01
2022-09-20 21:30:00,,0826.4,5.00,0.00,29.7,28.2,00.0,38.2,31.6,11.3,0000.0,0006.66,0002.67,0002.01
2022-09-20 21:31:00,,0826.4,5.00,0.00,29.7,27.0,00.0,38.2,31.5,12.1,0000.0,0006.71,0002.64,0002.02
2022-09-20 21:32:00,,0826.4,5.01,0.00,29.6,26.5,00.0,38.2,31.5,12.0,0000.0,0006.48,0002.64,0002.03
2022-09-20 21:33:00,,0826.5,5.00,0.00,29.6,26.8,00.0,38.1,31.4,11.3,0000.0,0006.04,0002.64,0002.04
2022-09-20 21:34:00,,0826.4,4.99,0.00,29.5,27.1,00.0,38.1,31.3,11.2,0000.0,0005.93,0002.62,0002.05
2022-09-20 21:35:00,,0826.4,5.00,0.00,29.5,27.4,00.0,38.1,31.3,11.0,0000.0,0005.94,0002.67,0002.04
2022-09-20 21:36:00,,0826.5,5.01,0.00,29.5,27.7,00.0,38.1,31.3,10.8,0000.0,0005.70,0002.65,0002.05
2022-09-20 21:37:00,,0826.4,5.00,0.00,29.6,27.9,00.0,38.2,31.4,11.0,0000.0,0005.55,0002.63,0002.06
2022-09-20 21:38:00,,0826.4,5.00,0.00,29.6,28.2,00.0,38.2,31.5,11.3,0000.0,0005.19,0002.61,0002.07
2022-09-20 21:39:00,,0826.4,5.00,0.00,29.6,28.4,00.0,38.2,31.5,10.9,0000.0,0006.11,0002.58,0002.08
2022-09-20 21:40:00,,0826.4,4.99,0.00,29.7,28.3,00.0,38.2,31.6,10.6,0000.0,0006.66,0002.57,0002.07
2022-09-20 21:41:00,,0826.4,5.00,0.00,29.7,27.2,00.0,38.2,31.6,10.7,0000.0,0005.63,0002.52,0002.07
2022-09-20 21:42:00,,0826.4,5.02,0.00,29.6,26.5,00.0,38.2,31.5,11.0,0000.0,0005.60,0002.49,0002.08
2022-09-20 21:43:00,,0826.4,5.00,0.00,29.6,26.8,00.0,38.2,31.5,11.0,0000.0,0006.21,0002.48,0002.08
2022-09-20 21:44:00,,0826.4,5.00,0.00,29.6,27.1,00.0,38.1,31.3,11.0,0000.0,0006.20,0002.48,0002.08
2022-09-20 21:45:00,,0826.4,4.99,0.00,29.5,27.4,00.0,38.2,31.3,11.0,0000.0,0006.19,0002.47,0002.07
2022-09-20 21:46:00,,0826.4,5.00,0.00,29.5,27.7,00.0,38.2,31.3,11.3,0000.0,0006.47,0002.39,0002.08
2022-09-20 21:47:00,,0826.4,4.99,0.00,29.6,27.9,00.0,38.2,31.4,11.5,0000.0,0007.06,0002.38,0002.09
2022-09-20 21:48:00,,0826.5,5.01,0.00,29.6,28.1,00.0,38.2,31.5,11.8,0000.0,0007.83,0002.43,0002.11
2022-09-20 21:49:00,,0826.4,4.99,0.00,29.6,28.3,00.0,38.2,31.5,11.6,0000.0,0008.38,0002.52,0002.11
2022-09-20 21:50:00,,0826.4,5.01,0.00,29.7,27.9,00.0,38.2,31.6,11.5,0000.0,0008.04,0002.54,0002.11
2022-09-20 21:51:00,,0826.4,5.00,0.00,29.6,26.7,00.0,38.2,31.5,11.5,0000.0,0007.69,0002.55,0002.12
2022-09-20 21:52:00,,0826.5,5.00,0.00,29.6,26.5,00.0,38.2,31.4,12.0,0000.0,0007.93,0002.56,0002.13
2022-09-20 21:53:00,,0826.4,4.99,0.00,29.6,26.8,00.0,38.1,31.4,12.1,0000.0,0008.14,0002.54,0002.12
2022-09-20 21:54:00,,0826.5,5.00,0.00,29.5,27.1,00.0,38.1,31.2,11.7,0000.0,0008.17,0002.51,0002.11
2022-09-20 21:55:00,,0826.5,5.00,0.00,29.5,27.4,00.0,38.1,31.3,11.6,0000.0,0008.36,0002.58,0002.12
2022-09-20 21:56:00,,0826.5,4.99,0.00,29.5,27.7,00.0,38.1,31.3,11.8,0000.0,0008.48,0002.64,0002.13
2022-09-20 21:57:00,,0826.5,5.00,0.00,29.5,28.0,00.0,38.2,31.4,11.5,0000.0,0008.95,0002.64,0002.13
2022-09-20 21:58:00,,0826.5,5.01,0.00,29.6,28.2,00.0,38.2,31.5,11.5,0000.0,0008.77,0002.68,0002.14
2022-09-20 21:59:00,,0826.5,5.00,0.00,29.6,28.4,00.0,38.2,31.6,11.6,0000.0,0008.68,0002.70,0002.14
